Powrót do katalogu

ORBCOMM FM 11

AktywnyŁącznośćLEO
NORAD 25114·PAYLOAD·🇺🇸 United States

Wystrzelony Dec 23, 1997 z Cape Canaveral Space Force Station

Loading…

Następne Przeloty (najbliższe 24 godziny)

TLE

ŚwieżeSource: Space-Track

Epoka: Sep 14, 2026, 13:41 UTC

1 25114U 97084C   26257.57039591  .00000798  00000-0  25767-3 0  9996
2 25114  45.0147 348.2565 0003685 342.2053  17.8669 14.46870570507258

Śledź ORBCOMM FM 11 w czasie rzeczywistym z AllMySat

Download on the App Store